Fernandina Beach, FL

3:07 AM EST on November 13, 2019 (GMT -0500)
Fernandina Beach

Weather History for KFHB - October, 2019

Change the Weather History Date:

Sunday, October 20, 2019

  Actual Average (WUND) Record (WUND)
Temperature  
Mean Temperature 71 °F -  
Max Temperature 77 °F - - (-1)
Min Temperature 65 °F - - (-1)
Cooling Degree Days 6    
Growing Degree Days 21 (Base 50)    
Moisture  
Dew Point 66 °F    
Average Humidity 81    
Maximum Humidity 94    
Minimum Humidity 66    
Precipitation  
Precipitation 0.00 in - - ()
Sea Level Pressure  
Sea Level Pressure 29.86 in    
Wind  
Wind Speed 16 mph (West)    
Max Wind Speed 25 mph    
Max Gust Speed 33 mph    
Visibility 10 miles    
Events      
Averages and records for this station are not official NWS values.
T = Trace of Precipitation, MM = Missing Value Source: NWS Daily Summary

Daily Weather History Graph

Daily Weather History Graph

Search for Another Location

Airport or City:

Astronomy

Oct. 20, 2019 Rise Set
Actual Time 7:31 AM EDT 6:49 PM EDT
Civil Twilight 7:07 AM EDT 7:13 PM EDT
Nautical Twilight 6:38 AM EDT 7:41 PM EDT
Astronomical Twilight 6:11 AM EDT 8:09 PM EDT
Moon No Moon Rise 1:42 PM EDT (10/20)
Length of Visible Light 12h 06m
Length of Day
11h 17m
Waning Gibbous, 59% of the Moon is Illuminated
Oct 20
Waning Gibbous
Oct 21
Last Quarter
Oct 27
New
Nov 4
First Quarter
Nov 12
Full

Hourly Weather History & Observations

Time (EDT) Temp. Dew Point Humidity Pressure Visibility Wind Dir Wind Speed Gust Speed Precip Events Conditions
12:15 AM 76.8 °F 73.6 °F 90% 29.72 in 10.0 mi SW 18.4 mph 24.2 mph N/A   Scattered Clouds
12:35 AM 76.5 °F 73.6 °F 91% 29.72 in 10.0 mi SSW 18.4 mph 23.0 mph N/A   Scattered Clouds
12:55 AM 76.8 °F 73.4 °F 89% 29.71 in 10.0 mi SW 16.1 mph - N/A   Mostly Cloudy
1:15 AM 77.0 °F 72.7 °F 86% 29.71 in 10.0 mi SW 20.7 mph 28.8 mph N/A   Overcast
1:35 AM 76.8 °F 72.5 °F 86% 29.71 in 10.0 mi SW 19.6 mph - N/A   Mostly Cloudy
1:55 AM 76.6 °F 72.3 °F 86% 29.72 in 10.0 mi SW 21.9 mph 29.9 mph N/A   Mostly Cloudy
2:15 AM 76.6 °F 72.3 °F 86% 29.71 in 10.0 mi SW 16.1 mph - N/A   Mostly Cloudy
2:35 AM 76.3 °F 72.3 °F 87% 29.71 in 10.0 mi SW 18.4 mph 27.6 mph N/A   Mostly Cloudy
2:55 AM 76.3 °F 72.1 °F 87% 29.71 in 10.0 mi WSW 17.3 mph - N/A   Mostly Cloudy
3:15 AM 76.1 °F 71.2 °F 85% 29.71 in 10.0 mi WSW 25.3 mph 31.1 mph N/A   Mostly Cloudy
3:35 AM 75.7 °F 70.5 °F 84% 29.71 in 10.0 mi WSW 17.3 mph 33.4 mph N/A   Scattered Clouds
3:55 AM 75.2 °F 70.3 °F 85% 29.72 in 10.0 mi SW 17.3 mph 25.3 mph N/A   Scattered Clouds
4:15 AM 74.7 °F 69.8 °F 85% 29.72 in 10.0 mi WSW 18.4 mph 21.9 mph N/A   Mostly Cloudy
4:35 AM 74.3 °F 69.1 °F 84% 29.73 in 10.0 mi WSW 19.6 mph 26.5 mph N/A   Overcast
4:55 AM 74.1 °F 68.2 °F 82% 29.73 in 10.0 mi WSW 17.3 mph 28.8 mph N/A   Overcast
5:15 AM 73.9 °F 68.0 °F 82% 29.74 in 10.0 mi WSW 19.6 mph 27.6 mph N/A   Overcast
5:35 AM 73.6 °F 68.0 °F 83% 29.75 in 10.0 mi WSW 18.4 mph 26.5 mph N/A   Overcast
5:55 AM 72.7 °F 67.8 °F 85% 29.75 in 10.0 mi WSW 16.1 mph 24.2 mph N/A   Mostly Cloudy
6:15 AM 72.5 °F 67.1 °F 83% 29.77 in 10.0 mi WSW 23.0 mph 29.9 mph N/A   Mostly Cloudy
6:35 AM 71.8 °F 65.8 °F 81% 29.78 in 10.0 mi WSW 16.1 mph 32.2 mph N/A   Overcast
6:55 AM 70.5 °F 65.3 °F 83% 29.80 in 10.0 mi West 20.7 mph 26.5 mph N/A   Overcast
7:15 AM 68.9 °F 64.4 °F 86% 29.82 in 10.0 mi West 19.6 mph 31.1 mph N/A   Overcast
7:35 AM 68.5 °F 64.4 °F 87% 29.83 in 10.0 mi West 16.1 mph 23.0 mph N/A   Overcast
7:55 AM 68.4 °F 64.4 °F 87% 29.83 in 10.0 mi West 12.7 mph 18.4 mph N/A   Overcast
8:15 AM 68.4 °F 64.0 °F 86% 29.84 in 10.0 mi West 16.1 mph 20.7 mph N/A   Overcast
8:35 AM 68.2 °F 63.9 °F 86% 29.85 in 10.0 mi West 19.6 mph 25.3 mph N/A   Overcast
8:55 AM 68.4 °F 63.9 °F 85% 29.87 in 10.0 mi West 20.7 mph 26.5 mph N/A   Overcast
9:15 AM 67.8 °F 63.0 °F 84% 29.88 in 10.0 mi West 18.4 mph 26.5 mph N/A   Overcast
9:55 AM 68.0 °F 63.1 °F 84% 29.90 in 10.0 mi West 20.7 mph 25.3 mph N/A   Overcast
10:15 AM 67.6 °F 63.3 °F 86% 29.91 in 10.0 mi WNW 20.7 mph 25.3 mph N/A   Overcast
10:35 AM 68.5 °F 63.7 °F 84% 29.91 in 10.0 mi WNW 15.0 mph 20.7 mph N/A   Overcast
10:55 AM 68.7 °F 63.3 °F 83% 29.91 in 10.0 mi WNW 15.0 mph 23.0 mph N/A   Overcast
11:15 AM 70.0 °F 63.1 °F 79% 29.92 in 10.0 mi WNW 13.8 mph 25.3 mph N/A   Overcast
11:35 AM 69.8 °F 63.0 °F 79% 29.92 in 10.0 mi WNW 18.4 mph 23.0 mph N/A   Overcast
11:55 AM 70.2 °F 62.8 °F 77% 29.92 in 10.0 mi WNW 13.8 mph 25.3 mph N/A   Overcast
12:15 PM 71.2 °F 63.1 °F 75% 29.92 in 10.0 mi WNW 17.3 mph 21.9 mph N/A   Mostly Cloudy
12:35 PM 72.0 °F 63.5 °F 75% 29.92 in 10.0 mi WNW 16.1 mph 25.3 mph N/A   Scattered Clouds
12:55 PM 73.0 °F 64.0 °F 73% 29.92 in 10.0 mi West 10.4 mph - N/A   Scattered Clouds
1:15 PM 73.8 °F 63.9 °F 71% 29.92 in 10.0 mi WNW 12.7 mph - N/A   Scattered Clouds
1:35 PM 74.8 °F 63.9 °F 69% 29.91 in 10.0 mi West 12.7 mph - N/A   Scattered Clouds
1:55 PM 75.6 °F 64.4 °F 68% 29.91 in 10.0 mi West 12.7 mph - N/A   Scattered Clouds
2:15 PM 75.9 °F 64.2 °F 67% 29.90 in 10.0 mi West 12.7 mph - N/A   Scattered Clouds
2:35 PM 76.5 °F 64.8 °F 67% 29.90 in 10.0 mi West 12.7 mph 17.3 mph N/A   Scattered Clouds
2:55 PM 77.0 °F 65.1 °F 67% 29.90 in 10.0 mi West 13.8 mph - N/A   Scattered Clouds
3:15 PM 76.5 °F 64.6 °F 67% 29.90 in 10.0 mi West 11.5 mph - N/A   Clear
3:35 PM 77.2 °F 65.3 °F 67% 29.90 in 10.0 mi West 10.4 mph - N/A   Clear
3:55 PM 77.0 °F 64.9 °F 66% 29.90 in 10.0 mi West 10.4 mph - N/A   Clear
4:15 PM 76.6 °F 64.6 °F 66% 29.90 in 10.0 mi WNW 12.7 mph - N/A   Clear
4:35 PM 77.2 °F 65.1 °F 66% 29.90 in 10.0 mi WNW 12.7 mph 16.1 mph N/A   Clear
4:55 PM 76.8 °F 64.8 °F 66% 29.91 in 10.0 mi West 9.2 mph - N/A   Clear
5:15 PM 76.6 °F 64.9 °F 67% 29.91 in 10.0 mi West 9.2 mph - N/A   Clear
5:35 PM 76.5 °F 64.9 °F 67% 29.91 in 10.0 mi West 8.1 mph - N/A   Clear
5:55 PM 76.3 °F 65.7 °F 70% 29.91 in 10.0 mi WNW 9.2 mph - N/A   Clear
6:15 PM 75.2 °F 65.5 °F 72% 29.91 in 10.0 mi WNW 6.9 mph - N/A   Clear
6:35 PM 73.6 °F 65.7 °F 76% 29.92 in 10.0 mi NW 4.6 mph - N/A   Clear
6:55 PM 71.8 °F 65.3 °F 80% 29.92 in 10.0 mi NW 5.8 mph - N/A   Clear
7:15 PM 70.9 °F 65.5 °F 83% 29.93 in 10.0 mi NW 4.6 mph - N/A   Clear
7:55 PM 70.3 °F 65.5 °F 85% 29.94 in 10.0 mi NNW 3.5 mph - N/A   Clear
8:15 PM 69.4 °F 65.5 °F 87% 29.95 in 10.0 mi NNW 3.5 mph - N/A   Clear
8:35 PM 68.7 °F 65.7 °F 90% 29.95 in 10.0 mi North 4.6 mph - N/A   Clear
8:55 PM 68.4 °F 64.9 °F 89% 29.95 in 10.0 mi North 3.5 mph - N/A   Clear
9:15 PM 68.2 °F 64.8 °F 89% 29.96 in 10.0 mi Calm Calm - N/A   Clear
9:35 PM 66.2 °F 64.0 °F 93% 29.97 in 10.0 mi Calm Calm - N/A   Clear
9:55 PM 65.8 °F 63.9 °F 93% 29.97 in 10.0 mi North 3.5 mph - N/A   Clear
10:15 PM 65.8 °F 64.0 °F 94% 29.98 in 10.0 mi Calm Calm - N/A   Clear
10:35 PM 66.2 °F 64.2 °F 93% 29.98 in 10.0 mi North 6.9 mph - N/A   Clear
10:55 PM 67.1 °F 64.4 °F 91% 29.98 in 10.0 mi North 6.9 mph - N/A   Clear
11:35 PM 66.2 °F 63.9 °F 92% 29.98 in 10.0 mi NW 3.5 mph - N/A   Clear
11:55 PM 66.4 °F 63.7 °F 91% 29.98 in 10.0 mi North 3.5 mph - N/A   Clear